Content
SEND FEEDBACK

Daily
Averages
Monthly
Summary
United States of America

HARRISON, MICHIGAN


Home > North America > United States > Michigan
Elevation: 583 feet     Latitude: 42 36N     Longitude: 082 50W

WEATHER
 
SELECT A DAY
Number of Records: 220,925;   Date Range: 1/1/95 - 7/20/14
 
SHARE

PRINT THIS DATA

[ ← Previous Day ]
WEATHER ALMANAC - FEBRUARY 13, 2013
[ Next Day → ]
[ °C ]   °F
Weather ElementAverageHighLow
Temperature29.6 °F33.8 °F (1:55 pm)26.6 °F (5:55 am)
Dewpoint22.9 °F26.6 °F (5:55 pm)19.4 °F (5:55 am)
Humidity76.6 %93 % (6:55 pm)60 % (1:55 pm)
Barometer29.81 in29.90 in (5:55 am)29.73 in (3:55 pm)
Wind Speed5.8 mph10.4 mph (11:55 am)
Weather ElementAverage
Visibility8.7 mi
Wind DirectionSSE (165.3 °)

Weather ElementTotal
Precipitation---
Heating Degree Days34.8 (Base 65)
Averaged from 19 records on February 13, 2013
WEATHER CONDITIONS BREAKOUT
WIND DIRECTION BREAKOUT
WEATHER BY HOUR - FEBRUARY 13, 2013
[ °C ]   °F
Local TimeTemperatureDewpointHumidityBarometerVisibilityWind DirectionWind SpeedGust SpeedPrecipitationEventsConditions
5:55 AM26.6 °F19.4 °F74 %29.90 in10.0 miNNW (330°)3.5 mphOvercast
6:55 AM26.6 °F19.4 °F74 %29.89 in10.0 miNW (320°)4.6 mphOvercast
7:55 AM28.4 °F19.4 °F69 %29.87 in10.0 miCalmOvercast
8:55 AM28.4 °F19.4 °F69 %29.86 in10.0 miCalmOvercast
9:55 AM28.4 °F21.2 °F74 %29.84 in10.0 miSSW (200°)5.8 mphOvercast
10:55 AM28.4 °F21.2 °F74 %29.84 in10.0 miSSE (150°)8.1 mphOvercast
11:55 AM30.2 °F21.2 °F69 %29.85 in10.0 miSSW (200°)10.4 mphOvercast
12:25 PM32.0 °F21.2 °F64 %29.80 in10.0 miSW (230°)4.6 mphScattered Clouds
12:55 PM32.0 °F21.2 °F64 %29.82 in10.0 miSW (220°)6.9 mphScattered Clouds
1:55 PM33.8 °F21.2 °F60 %29.78 in10.0 miCalmPartly Cloudy
2:55 PM32.0 °F24.8 °F75 %29.77 in10.0 miSE (140°)10.4 mphClear
3:55 PM33.8 °F24.8 °F70 %29.73 in7.0 miSSE (150°)8.1 mphClear
4:55 PM32.0 °F24.8 °F75 %29.77 in7.0 miESE (120°)5.8 mphPartly Cloudy
5:55 PM30.2 °F26.6 °F86 %29.78 in7.0 miSE (140°)6.9 mphMostly Cloudy
6:55 PM28.4 °F26.6 °F93 %29.78 in7.0 miSSE (160°)6.9 mphScattered Clouds
7:55 PM28.4 °F26.6 °F93 %29.80 in7.0 miSouth (180°)8.1 mphScattered Clouds
8:55 PM26.6 °F24.8 °F93 %29.80 in7.0 miSouth (190°)6.9 mphPartly Cloudy
9:55 PM28.4 °F24.8 °F86 %29.81 in7.0 miSSW (200°)5.8 mphMostly Cloudy
10:55 PM28.4 °F26.6 °F93 %29.77 in7.0 miSSW (210°)6.9 mphMostly Cloudy
Hourly data recorded from KMTC, located miles away from Harrison, Michigan







STORIES FROM OUR PARTNERS